カタログに戻る

MBZ-SAT

運用中科学SSO
NORAD 62626·PAYLOAD·🇦🇪 UAE

打ち上げ Jan 14, 2025 から Vandenberg Space Force Base

Loading…

次のパス (今後24時間)

TLE

最新Source: Space-Track

元期: Sep 14, 2026, 11:53 UTC

1 62626U 25009T   26257.49558027  .00001219  00000-0  63488-4 0  9996
2 62626  97.3924 333.7183 0006382  45.9440 314.2319 15.17852021 92232

AllMySatでMBZ-SATをリアルタイム追跡

Download on the App Store